ABS-3A

Last updated on Fri Jul 11 2025 00:02:44 GMT+0000 (Coordinated Universal Time)

1 40424U 15010A 25191.29614657 -.00000014 00000+0 00000+0 0 9993 2 40424 0.0077 28.6661 0001836 33.6068 329.8134 1.00270617 37940
UTC large
Height (km)
Speed (km/s)
/
Latitude / Longitude
Inclination (degrees)
Orbital Period (minutes)
Azimuth
Elevation
Range (km)
Doppler Factor

Next 0 passes for location: London (51.5072 / 0.1276)

Sorry there are no passes over London.